Погода в Русской Поляне

Россия / Омская область     53°46′43″N   73°52′42″E
темп.,
°C
ветер,
м/с
пор.,
м/с
влажн.,
%
обл.,
%
осадки,
мм/ч
давл.,
гПа
погр.,
м
23 сентября, чт
чт2300:00+6с458099 0.5 1021716
03:00+4с238870 0.0 102196
06:00+4ссв468558 0.1 1022438
09:00+4ссв458121 0.0 1024405
12:00+7с445479 0.0 10241371
15:00+8ссз4455100 0.2 10251218
18:00+6с555779 0.1 10261074
21:00+4ссв476953 0.1 1027248
24 сентября, пт
пт2400:00+2с33765 0.1 102958
03:00+2ссз227231 0.0 102934
06:00+2зсз3471100 0.0 103097
09:00+4сз346755 0.0 1030420
12:00+7зсз555086 0.0 10301420
15:00+8зсз5647100 0.0 10301525
18:00+8зсз565058 0.0 1029919
21:00+5з366177 0.0 1029123
25 сентября, сб
сб2500:00+5з4663100 0.0 1028130
03:00+5з48655 0.0 1027184
06:00+3з346799 0.0 102952
09:00+6зсз5962100 0.0 1025297
12:00+10зсз57485 0.0 10231073
15:00+11ссз6847100 0.0 10221793
18:00+9с5855100 0.0 10221219
21:00+6ссв576659 0.0 1023884
26 сентября, вс
вс2600:00+3ссв35705 0.0 1023113
03:00+1с34725 0.0 102492
06:000с36795 0.0 1025141
09:00+1ссв46735 0.0 1026373
12:00+5ссв55538 0.0 10251142
15:00+7св664341 0.0 10251566
18:00+6всв67445 0.0 10261387
21:00+2всв49625 0.0 1027341
27 сентября, пн
пн2700:000всв38764 0.0 1027217
03:00−1всв49925 0.0 1026227
06:00−1всв5119725 0.0 1026273
09:00+2всв61183100 0.0 1025639
12:00+5в5966100 0.1 10251294
15:00+6всв7957100 0.0 10241607
18:00+6всв61059100 0.1 10241358
21:00+5всв71174100 0.1 1025780